Weather History for Whiteman AFB, MO

Change the Weather History Date:

Sunday, January 13, 2013

  Actual Average Record
Temperature  
Mean Temperature 19 °F -  
Max Temperature 24 °F 36 °F 59 °F (2002)
Min Temperature 10 °F 20 °F -4 °F (1997)
Degree Days  
Heating Degree Days 46    
Moisture  
Dew Point 11 °F    
Average Humidity 71    
Maximum Humidity 81    
Minimum Humidity 57    
Precipitation  
Precipitation 0.00 in - - ()
Sea Level Pressure  
Sea Level Pressure 30.23 in    
Wind  
Wind Speed 9 mph (NW)    
Max Wind Speed 14 mph    
Max Gust Speed -    
Visibility 10 miles    
Events      
Averages and records for this station are not official NWS values.
T = Trace of Precipitation, MM = Missing Value Source: NWS Daily Summary

Daily Weather History Graph

Daily Weather History Graph

Search for Another Location

Airport:

Trip Planner

Search our weather history database for the weather conditions in past years. The results will help you decide how hot, cold, wet, or windy it might be!

Date:

Astronomy

Jan. 13, 2013 Rise Set
Actual Time 7:31 AM CST 5:15 PM CST
Civil Twilight 7:02 AM CST 5:44 PM CST
Nautical Twilight 6:29 AM CST 6:17 PM CST
Astronomical Twilight 5:57 AM CST 6:48 PM CST
Moon 8:32 AM CST (1/13) 7:52 PM CST (1/13)
Length of Visible Light 10h 42m
Length of Day
9h 43m
Waxing Crescent, 5% of the Moon is Illuminated
Jan 13
Waxing Crescent
Jan 18
First Quarter
Jan 26
Full
Feb 3
Last Quarter
Feb 10
New

Hourly Weather History & Observations

Time (CST) Temp. Windchill Dew Point Humidity Pressure Visibility Wind Dir Wind Speed Gust Speed Precip Events Conditions
12:33 AM 21.2 °F 12.6 °F 15.8 °F 80% 30.06 in 10.0 mi NNW 6.9 mph - N/A   Partly Cloudy
12:55 AM 21.2 °F 11.7 °F 16.0 °F 80% 30.07 in 10.0 mi NNW 8.1 mph - 0.00 in   Partly Cloudy
1:55 AM 21.2 °F 8.9 °F 14.9 °F 77% 30.10 in 10.0 mi NNW 12.7 mph - N/A   Clear
2:39 AM 21.2 °F 8.9 °F 14.0 °F 74% 30.13 in 10.0 mi NNW 12.7 mph - N/A   Mostly Cloudy
2:55 AM 20.5 °F 9.2 °F 12.9 °F 73% 30.12 in 10.0 mi NNW 10.4 mph - N/A   Mostly Cloudy
3:05 AM 19.4 °F 6.6 °F 12.2 °F 74% 30.10 in 10.0 mi North 12.7 mph - N/A   Overcast
3:55 AM 19.0 °F 7.5 °F 12.2 °F 75% 30.12 in 10.0 mi NNW 10.4 mph - N/A   Mostly Cloudy
4:55 AM 19.0 °F 8.2 °F 12.2 °F 75% 30.14 in 10.0 mi North 9.2 mph - N/A   Partly Cloudy
5:55 AM 18.3 °F 5.2 °F 11.3 °F 74% 30.17 in 10.0 mi NW 12.7 mph - N/A   Scattered Clouds
6:55 AM 16.2 °F 3.9 °F 7.5 °F 69% 30.21 in 10.0 mi NNW 10.4 mph - N/A   Scattered Clouds
7:55 AM 14.5 °F 1.9 °F 7.3 °F 73% 30.20 in 10.0 mi NNW 10.4 mph - N/A   Scattered Clouds
8:55 AM 15.1 °F 2.5 °F 7.0 °F 70% 30.22 in 10.0 mi NW 10.4 mph - N/A   Clear
9:55 AM 16.9 °F 2.8 °F 7.7 °F 67% 30.26 in 10.0 mi NNW 13.8 mph - N/A   Clear
10:55 AM 18.1 °F 5.6 °F 8.8 °F 67% 30.28 in 10.0 mi NW 11.5 mph - N/A   Clear
11:55 AM 19.4 °F 7.9 °F 10.2 °F 68% 30.25 in 10.0 mi WNW 10.4 mph - N/A   Clear
12:55 PM 20.8 °F 8.4 °F 10.8 °F 65% 30.24 in 10.0 mi WNW 12.7 mph - N/A   Clear
1:55 PM 22.6 °F 10.7 °F 11.5 °F 62% 30.25 in 10.0 mi WNW 12.7 mph - N/A   Clear
2:55 PM 23.2 °F 13.3 °F 10.6 °F 59% 30.26 in 10.0 mi NW 9.2 mph - N/A   Clear
3:55 PM 24.1 °F 14.4 °F 10.8 °F 57% 30.28 in 10.0 mi NW 9.2 mph - N/A   Clear
4:55 PM 23.2 °F 13.3 °F 10.8 °F 59% 30.30 in 10.0 mi WNW 9.2 mph - N/A   Clear
5:55 PM 20.7 °F 14.2 °F 10.8 °F 66% 30.32 in 10.0 mi NW 4.6 mph - N/A   Clear
6:55 PM 19.9 °F 13.4 °F 10.6 °F 67% 30.33 in 10.0 mi NNW 4.6 mph - N/A   Clear
7:55 PM 18.9 °F - 9.9 °F 68% 30.33 in 10.0 mi Calm Calm - N/A   Clear
8:55 PM 14.5 °F 8.8 °F 9.3 °F 80% 30.36 in 10.0 mi West 3.5 mph - N/A   Clear
9:55 PM 15.4 °F 9.8 °F 8.6 °F 74% 30.35 in 10.0 mi West 3.5 mph - N/A   Clear
10:55 PM 14.2 °F - 8.4 °F 78% 30.38 in 10.0 mi Calm Calm - N/A   Clear
11:55 PM 10.9 °F 4.7 °F 6.3 °F 81% 30.40 in 10.0 mi South 3.5 mph - N/A   Clear